Regional Weather Roundup
Issued by NWS

Home | Current Version | Previous Version | Graphics & Text | Print | Product List | Glossary On
Versions: 1 2 3 4 5 6 7 8 9 10 11 12 13 14 15 16 17 18 19 20 21 22 23 24 25 26 27 28 29 30 31 32 33 34 35 36 37 38 39 40 41 42 43 44 45 46 47 48 49 50
000
ASUS43 KFSD 301410
RWRSD

WEATHER ROUNDUP FOR SOUTH DAKOTA
NATIONAL WEATHER SERVICE SIOUX FALLS SD
900 AM CDT THU JUL 30 2015

NOTE: "FAIR" INDICATES FEW OR NO CLOUDS BELOW 12,000 FEET WITH NO
SIGNIFICANT WEATHER AND/OR OBSTRUCTIONS TO VISIBILITY.


SDZ001>005-009-010-012>017-301500-
NORTHWEST AND NORTH CENTRAL SOUTH DAKOTA

CITY           SKY/WX    TMP DP  RH WIND       PRES   REMARKS
BUFFALO          N/A     65  47  52 SW5       30.17R
FAITH            N/A     67  46  47 W9        30.21R
MOBRIDGE       SUNNY     68  59  73 CALM      30.13S
$$

SDZ012>016-024>037-041>051-057-063-072>074-301500-
SOUTHWEST AND SOUTH CENTRAL SOUTH DAKOTA

CITY           SKY/WX    TMP DP  RH WIND       PRES   REMARKS
RAPID CTY ARPT SUNNY     68  47  46 W8        30.25R
PIERRE         SUNNY     68  54  60 CALM      30.15R
CUSTER         SUNNY     66  40  38 CALM      30.39R
ELLSWORTH AFB  SUNNY     67  49  53 NW5       30.25R
PHILIP         SUNNY     64  54  69 W6        30.19R
PINE RIDGE     SUNNY     64  51  62 W5        30.27R
SPEARFISH      FAIR      68  46  45 W8        30.30S
WINNER         FAIR      71  54  54 W5        30.19S
$$

SDZ004>011-016>023-039-040-301500-
NORTHEAST SOUTH DAKOTA

CITY           SKY/WX    TMP DP  RH WIND       PRES   REMARKS
ABERDEEN       SUNNY     66  57  72 CALM      30.12R
WATERTOWN      SUNNY     69  57  65 S5        30.14R
BROOKINGS      SUNNY     66  57  72 N5        30.16S
SISSETON         N/A     73  59  61 N6        30.08R
$$

SDZ017-020-022-023-036>040-048>070-301500-
SOUTHEAST SOUTH DAKOTA

CITY           SKY/WX    TMP DP  RH WIND       PRES   REMARKS
SIOUX FALLS    MOSUNNY   71  58  63 SW7       30.14R
HURON          SUNNY     69  56  62 CALM      30.13S
CHAMBERLAIN    SUNNY     69  56  65 SW6       30.16R
MITCHELL       SUNNY     69  59  70 NW5       30.15R
YANKTON        SUNNY     73  57  56 W12       30.15R
$$

ABBREVIATIONS USED IN REMARKS
   TC - TEMPERATURE IN CELSIUS
  WCI - WIND CHILL INDEX
   HX - HEAT INDEX
  VSB - VISIBILITY



USA.gov is the U.S. government's official web portal to all federal, state and local government web resources and services.